📊 Raw Sensor Data
Showing records 42126 to 42150 of 84,995 total
| ID | Distance (ft) | Battery V | Battery A | Int Temp (°F) | Int Humid (%) | Ext Temp (°F) | Solar V | RSSI | SNR | Time Stamp |
|---|---|---|---|---|---|---|---|---|---|---|
| 42882 | 15.2 | 3.95 | -5 | 54 | 43 | 55 | 0.00 | -71 | 8 | 06/08/2025 03:30 AM |
| 42881 | 15.2 | 4.01 | -5 | 54 | 43 | 55 | 0.10 | -70 | 8 | 06/08/2025 03:15 AM |
| 42880 | 15.2 | 3.96 | -5 | 55 | 43 | 56 | 0.00 | -68 | 8 | 06/08/2025 03:00 AM |
| 42879 | 15.2 | 4.01 | -5 | 55 | 44 | 56 | 0.00 | -73 | 8 | 06/08/2025 02:30 AM |
| 42878 | 15.2 | 3.96 | -5 | 55 | 44 | 55 | 0.00 | -69 | 8 | 06/08/2025 02:15 AM |
| 42877 | 15.2 | 3.96 | -5 | 55 | 44 | 56 | 0.00 | -70 | 8 | 06/08/2025 02:00 AM |
| 42876 | 15.2 | 4.02 | -5 | 56 | 44 | 56 | 0.00 | -71 | 8 | 06/08/2025 01:30 AM |
| 42875 | 15.2 | 3.96 | -5 | 56 | 44 | 56 | 0.00 | -70 | 8 | 06/08/2025 01:15 AM |
| 42874 | 15.2 | 3.96 | -5 | 56 | 44 | 57 | 0.10 | -71 | 8 | 06/08/2025 01:00 AM |
| 42873 | 15.2 | 3.96 | -5 | 57 | 44 | 57 | 0.00 | -70 | 8 | 06/08/2025 12:45 AM |
| 42872 | 15.2 | 4.02 | -5 | 57 | 44 | 57 | 0.00 | -69 | 8 | 06/08/2025 12:30 AM |
| 42871 | 15.2 | 4.02 | -5 | 57 | 45 | 57 | 0.00 | -70 | 9 | 06/08/2025 12:15 AM |
| 42870 | 15.2 | 3.97 | -5 | 57 | 45 | 58 | 0.00 | -70 | 8 | 06/08/2025 12:00 AM |
| 42869 | 15.2 | 3.97 | -5 | 58 | 45 | 58 | 0.00 | -71 | 8 | 06/07/2025 11:45 PM |
| 42868 | 15.2 | 3.97 | -5 | 58 | 45 | 59 | 0.10 | -71 | 7 | 06/07/2025 11:30 PM |
| 42867 | 15.2 | 3.97 | -5 | 59 | 45 | 59 | 0.00 | -73 | 7 | 06/07/2025 11:15 PM |
| 42866 | 15.1 | 4.03 | -5 | 59 | 46 | 59 | 0.00 | -71 | 8 | 06/07/2025 11:00 PM |
| 42865 | 15.2 | 3.97 | -5 | 59 | 46 | 60 | 0.00 | -71 | 8 | 06/07/2025 10:45 PM |
| 42864 | 15.2 | 3.97 | -5 | 60 | 46 | 60 | 0.00 | -70 | 8 | 06/07/2025 10:30 PM |
| 42863 | 15.2 | 4.03 | -5 | 61 | 47 | 61 | 0.00 | -70 | 8 | 06/07/2025 10:15 PM |
| 42862 | 15.2 | 4.03 | -5 | 61 | 47 | 61 | 0.00 | -73 | 8 | 06/07/2025 10:00 PM |
| 42861 | 15.2 | 4.03 | -5 | 62 | 48 | 62 | 0.00 | -73 | 9 | 06/07/2025 09:45 PM |
| 42860 | 15.2 | 4.03 | -5 | 63 | 48 | 63 | 0.00 | -69 | 8 | 06/07/2025 09:30 PM |
| 42859 | 15.3 | 3.97 | -5 | 64 | 49 | 63 | 0.10 | -71 | 7 | 06/07/2025 09:15 PM |
| 42858 | 15.3 | 4.03 | -5 | 65 | 50 | 64 | 0.10 | -69 | 8 | 06/07/2025 09:00 PM |